Вернуться в каталог

HEAD-3D

АктивенНаукаLEO
NORAD 57629·PAYLOAD·🇨🇳 China

Запущен Aug 14, 2023 с Xichang Satellite Launch Center

Loading…

Ближайшие Пролёты (ближайшие 24 часа)

TLE

СвежийSource: Space-Track

Эпоха: Sep 14, 2026, 10:58 UTC

1 57629U 23121D   26257.45731794  .00000465  00000-0  12127-3 0  9991
2 57629  45.0044 214.0659 0007908   3.6593 356.4321 14.63045105164874

Отслеживайте HEAD-3D в реальном времени с AllMySat

Download on the App Store